Hourly Data Report for February 05, 2017

All times are specified in Local Standard Time (LST). Add 1 hour to adjust for Daylight Saving Time where and when it is observed.

TORONTO CITY
ONTARIO

43°40'00.000" N
79°24'00.000" W
112.50 m
6158355
71508
XTO

Download Data

Hourly Data (February 2017)
Hourly Data Report for February 5, 2017
TIME Temp Definition
°C
Dew Point Definition
°C
Rel Hum Definition
%
Wind Dir Definition
10's deg

Wind Spd Definition
km/h
Visibility Definition
km
Stn Press Definition
kPa
Hmdx Definition


Wind Chill Definition


Weather Definition


00:00 -1.5 -8.1 61 LegendMM LegendMM   100.29     LegendNANA
01:00 -0.3 -8.4 54 LegendMM LegendMM   100.12     LegendNANA
02:00 -0.5 -9.1 52 LegendMM LegendMM   100.03     LegendNANA
03:00 -1.0 -9.0 55 LegendMM LegendMM   99.95     LegendNANA
04:00 -0.7 -8.6 55 LegendMM LegendMM   99.81     LegendNANA
05:00 -1.1 -8.9 55 LegendMM LegendMM   99.75     LegendNANA
06:00 -1.1 -8.4 57 LegendMM LegendMM   99.64     LegendNANA
07:00 -1.1 -8.7 56 LegendMM LegendMM   99.56     LegendNANA
08:00 -1.5 -5.9 72 LegendMM LegendMM   99.56     LegendNANA
09:00 -1.7 -4.2 83 LegendMM LegendMM   99.54     LegendNANA
10:00 -2.0 -3.2 92 LegendMM LegendMM   99.54     LegendNANA
11:00 -1.0 -3.8 81 LegendMM LegendMM   99.51     LegendNANA
12:00 -0.3 -4.0 76 LegendMM LegendMM   99.44     LegendNANA
13:00 0.0 -3.8 76 LegendMM LegendMM   99.41     LegendNANA
14:00 0.3 -3.5 76 LegendMM LegendMM   99.38     LegendNANA
15:00 0.7 -3.8 72 LegendMM LegendMM   99.42     LegendNANA
16:00 0.9 -3.1 75 LegendMM LegendMM   99.51     LegendNANA
17:00 1.2 -3.8 69 LegendMM LegendMM   99.60     LegendNANA
18:00 0.8 -4.7 67 LegendMM LegendMM   99.77     LegendNANA
19:00 0.2 -6.0 63 LegendMM LegendMM   99.92     LegendNANA
20:00 -0.4 -5.9 67 LegendMM LegendMM   100.04     LegendNANA
21:00 -1.1 -5.4 73 LegendMM LegendMM   100.15     LegendNANA
22:00 -1.5 -7.3 64 LegendMM LegendMM   100.25     LegendNANA
23:00 -1.9 -8.6 60 LegendMM LegendMM   100.30     LegendNANA

Notes on Data Quality.

Legend

  • E = Estimated
  • M = Missing
  • NA = Not Available
Date modified: